Jones - western half: Past 24 Hour Conditions

 

Paulatuk Airport

05:00 AM MDT 16 April 2014
This table is a summary of hourly weather conditions for the past 24 hours.
Date / Time
(MDT)
Wind(knots) Conditions Visibility(km) Pressure(kPa) Air tempC) Relative humidity(%) Dew pointC) Wind Chill
16 April 2014
5:00 SW 10 N/A N/A 101.4 -9 78 -12 -16
4:00 SSW 10 N/A N/A 101.5 -8 77 -11 -15
3:00 SSW 11 N/A N/A 101.5 -7 75 -11 -14
2:00 SSW 15 N/A N/A 101.5 -6 73 -11 -14
1:00 SSW 16 gust 21 N/A N/A 101.5 -6 71 -10 -14
0:00 SSW 18 N/A N/A 101.5 -5 71 -10 -14
15 April 2014
23:00 SSW 21 N/A N/A 101.5 -5 72 -10 -14
22:00 SSW 22 N/A N/A 101.5 -5 70 -10 -15
21:00 SSW 26 N/A N/A 101.5 -5 71 -10 -15
20:00 SSW 28 N/A N/A 101.5 -5 69 -10 -15
19:00 SSW 30 gust 39 N/A N/A 101.4 -4 69 -9 -15
18:00 SSW 35 N/A N/A 101.4 -4 71 -9 -15
17:00 SSW 31 N/A N/A 101.5 -4 68 -9 -14
16:00 S 31 gust 38 N/A N/A 101.5 -5 67 -10 -15
15:00 S 34 gust 39 N/A N/A 101.6 -5 67 -10 -16
14:00 SSW 34 N/A N/A 101.6 -5 62 -11 -15
13:00 S 28 gust 37 N/A N/A 101.7 -5 58 -12 -15
12:00 S 26 gust 35 N/A N/A 101.8 -5 62 -11 -15
11:00 S 33 gust 38 N/A N/A 101.7 -7 67 -12 -18
10:00 SSW 36 gust 42 N/A N/A 101.7 -8 67 -13 -20
9:00 S 33 gust 38 N/A N/A 101.7 -9 69 -14 -21
8:00 S 36 gust 42 N/A N/A 101.7 -8 68 -13 -21
7:00 S 35 gust 41 N/A N/A 101.8 -9 68 -14 -22
6:00 E 6 gust 15 N/A N/A 102.0 -9 69 -14 -15
5:00 S 31 gust 37 N/A N/A 101.9 -10 73 -14 -22
 
Map of Arctic - Western Arctic marine weather areas Herschel Island Komakuk Beach Shingle Point Airport Aklavik Airport Cape Parry Airport Fort Good Hope Airport Tulita Airport Inuvik Airport Keats Point Norman Wells Airport Paulatuk Airport Pelly Island Tuktoyaktuk Airport Kugluktuk Airport Gjoa Haven Airport Hat Island Kugaaruk Airport Shepherd Bay Airport CFS Alert Arctic Bay Cambridge Bay Airport Cape Peel West Eureka Airport Grise Fiord Airport Hall Beach Airport Igloolik Airport Isachsen Pond Inlet Airport Rea Point Repulse Bay Airport Resolute Airport Stefansson Island Taloyoak Airport Aulavik National Park Ulukhaktok Airport Sachs Harbour Airport Thomsen River Liverpool Bay Little Chicago Storm Hills Croker River Mould Bay Bathurst Inlet Fort Ross Gateshead Island Svartevaeg
Legend: buoyBuoy land stationLand Station » US Marine Weather